This is the latest recevied weather packets stored in our database for station/object APPOWX. If no packets are shown the sender has not sent any weather packets the latest 1 day(s).
| Time | Temp. | Humidity | Pressure | Rain* | Wind** | Luminosity | Snow |
|---|---|---|---|---|---|---|---|
| 1778015914 | 25° C | 37% | 1014.6 hPa | 0 mm | 0.89 m/s, 76° | - | - |
| 1778015854 | 25° C | 35% | 1014.5 hPa | 0 mm | 1.34 m/s, 76° | - | - |
| 1778015793 | 25° C | 36% | 1014.8 hPa | 0 mm | 0.45 m/s, 82° | - | - |
| 1778015733 | 25° C | 37% | 1014.7 hPa | 0 mm | 0.89 m/s, 21° | - | - |
| 1778015673 | 25° C | 35% | 1014.6 hPa | 0 mm | 0.89 m/s, 17° | - | - |
| 1778015613 | 25° C | 36% | 1014.5 hPa | 0 mm | 0.45 m/s, 48° | - | - |
| 1778015553 | 25° C | 36% | 1014.8 hPa | 0 mm | 0.89 m/s, 94° | - | - |
| 1778015493 | 25° C | 36% | 1014.8 hPa | 0 mm | 0.45 m/s, 47° | - | - |
| 1778015432 | 25° C | 36% | 1014.6 hPa | 0 mm | 0.45 m/s, 359° | - | - |
| 1778015372 | 25° C | 37% | 1014.6 hPa | 0 mm | 0 m/s | - | - |
| 1778015312 | 25° C | 37% | 1014.7 hPa | 0 mm | 0 m/s | - | - |
| 1778015248 | 25° C | 35% | 1014.7 hPa | 0 mm | 0.45 m/s, 54° | - | - |
| 1778015185 | 25° C | 35% | 1014.6 hPa | 0 mm | 0 m/s | - | - |
| 1778015124 | 25° C | 35% | 1014.5 hPa | 0 mm | 0 m/s | - | - |
| 1778015064 | 25° C | 35% | 1014.6 hPa | 0 mm | 0.45 m/s, 95° | - | - |
| 1778015000 | 25° C | 34% | 1014.6 hPa | 0 mm | 0.45 m/s, 68° | - | - |
| 1778014936 | 25.56° C | 34% | 1014.5 hPa | 0 mm | 0.45 m/s, 62° | - | - |
| 1778014877 | 25.56° C | 35% | 1014.4 hPa | 0 mm | 1.34 m/s, 179° | - | - |
| 1778014816 | 25.56° C | 35% | 1014.4 hPa | 0 mm | 1.79 m/s, 224° | - | - |
| 1778014757 | 25.56° C | 35% | 1014.5 hPa | 0 mm | 0.89 m/s, 72° | - | - |
| 1778014697 | 25.56° C | 35% | 1014.6 hPa | 0 mm | 0.45 m/s, 71° | - | - |
| 1778014636 | 25.56° C | 36% | 1014.5 hPa | 0 mm | 1.34 m/s, 356° | - | - |
| 1778014576 | 25.56° C | 35% | 1014.4 hPa | 0 mm | 0.45 m/s, 18° | - | - |
| 1778014516 | 25.56° C | 37% | 1014.4 hPa | 0 mm | 0.45 m/s, 3° | - | - |
| 1778014456 | 25.56° C | 37% | 1014.5 hPa | 0 mm | 0.45 m/s, 59° | - | - |
* Rain latest hour (hover to see other rain measurements)
** Current wind speed in m/s (hover to see current wind gust speed)